Regional Weather Roundup
Issued by NWS Kansas City/Pleasant Hill, MO

Home | Current Version | Previous Version | Graphics & Text | Print | Product List | Glossary Off
Versions: 1 2 3 4 5 6 7 8 9 10 11 12 13 14 15 16 17 18 19 20 21 22 23 24 25 26 27 28 29 30 31 32 33 34 35 36 37 38 39 40 41 42 43 44 45 46 47 48 49 50

000
ASUS43 KEAX 201410
RWREAX

WEATHER ROUNDUP FOR EASTERN KANSAS AND NORTHWEST MISSOURI
NATIONAL WEATHER SERVICE KANSAS CITY/PLEASANT HILL MO
900 AM CDT SUN APR 20 2014

KSZ040-057-103>105-MOZ028-029-037-043-201500-
...KANSAS CITY METROPOLITAN AREA...

CITY           SKY/WX    TMP DP  RH WIND       PRES   REMARKS
K.C. INTL      PTSUNNY   66  49  54 S12       30.09S
K.C. DOWNTOWN  MOSUNNY   67  50  54 S8        30.09S
LEES SUMMIT    MOSUNNY   64  48  56 S10       30.11F
OLATHE - IXD   PTSUNNY   62  49  62 S10       30.11S
OLATHE - OJC   PTSUNNY   62  49  62 S9        30.10S
LAWRENCE       PTSUNNY   64  50  60 S8        30.09S

$$

MOZ001>008-011>017-020>025-030>033-038>040-044>046-053-054-201500-
...NORTHERN AND CENTRAL MISSOURI...

CITY           SKY/WX    TMP DP  RH WIND       PRES   REMARKS
ST. JOSEPH     SUNNY     66  50  56 SW14      30.06F
MOSBY          FAIR      63  50  63 S7        30.10S
WHITEMAN AFB   SUNNY     62  45  53 S10       30.13F
CLINTON        SUNNY     64  52  63 S7        30.15S
SEDALIA        SUNNY     67  50  54 SW10      30.15F
WARSAW         NOT AVBL
MARSHALL         N/A     70  52  52 S12       30.14S
CHILLICOTHE      N/A     65  48  54 SW8       30.12S
MOBERLY        SUNNY     66  45  45 S13       30.16R
KIRKSVILLE     MOSUNNY   63  45  51 S12       30.14R

$$

MOZ041-047>049-056>058-063>065-088>090-097-201500-
...EASTERN AND SOUTHERN MISSOURI...

CITY           SKY/WX    TMP DP  RH WIND       PRES   REMARKS
ST. LOUIS INTL PTSUNNY   69  42  37 S7        30.20S
SPIRIT OF STL  MOSUNNY   63  49  60 CALM      30.19S
COLUMBIA       SUNNY     65  46  50 S12       30.16S
JEFFERSON CITY SUNNY     63  46  54 SE6       30.17S
MEXICO         SUNNY     63  46  55 S12G17    30.16S
HANNIBAL       MOSUNNY   70  37  30 S10G16    30.16S
ROLLA          SUNNY     66  45  46 S12       30.18S
LEBANON        SUNNY     66  48  52 S8        30.19F
OSAGE BEACH    SUNNY     64  45  48 S6        30.19S
SPRINGFIELD    MOSUNNY   64  50  60 S10       30.18S
BRANSON        PTSUNNY   63  48  59 SE6       30.21S
NEVADA         MOSUNNY   68  52  56 S13       30.16S
JOPLIN         MOSUNNY   66  51  58 S14       30.17R
WEST PLAINS    SUNNY     63  44  50 SE5       30.22F
MALDEN         MOSUNNY   66  48  52 SE6       30.22S

$$

IAZ060-094-KSZ022-034>040-054-083-096-NEZ052-066-093-201500-
...KANSAS...SOUTHEAST NEBRASKA AND IOWA...

CITY           SKY/WX    TMP DP  RH WIND       PRES   REMARKS
TOPEKA         CLOUDY    66  50  56 S12G17    30.07S
MANHATTAN      PTSUNNY   67  51  56 SW16G24   30.03F
EMPORIA        PTSUNNY   61  50  67 S14       30.08S
CHANUTE        PTSUNNY   65  52  62 S10       30.13R
WICHITA        CLOUDY    64  52  64 S14       30.07S
OMAHA          PTSUNNY   66  49  54 S8        29.99R
LINCOLN        MOSUNNY   67  49  52 SW15      29.99R
FALLS CITY     MOSUNNY   66  51  58 S17G23    30.01F
LAMONI         SUNNY     64  47  53 S12       30.07S
DES MOINES     MOSUNNY   66  47  50 S9        30.05S

$$




USA.gov is the U.S. government's official web portal to all federal, state and local government web resources and services.